Flag for Austria Weather past 2 weeks in Judenburg, Styria, Austria

Now
43 °F

Light rain. Broken clouds.


Feels Like: 40 °F
Forecast: 37 / 51 °F
Wind: 5 mph from West

Location: Zeltweg

Current Time: Oct 23, 2014 at 1:15:11 PM

Latest Report: Oct 23, 2014 at 12:50 PM


Visibility: 9 mi

Pressure: 29.83 "Hg

Humidity: 87%

Dew point: 39 °F

Location of JudenburgLocation

Historic Weather in Judenburg — Graph

°F

Judenburg temperature yesterday

Maximum temperature yesterday: 46 °F (at 11:50 AM)
Minimum temperature yesterday: 41 °F (at 5:50 AM)
Average temperature yesterday: 43 °F

Past Weeks' High & Low Weather Summary

 TemperatureHumidityPressure
High73 °F (Oct 9, 1:20 PM)100% (Oct 9, 4:50 AM)30.36 "Hg (Oct 9, 4:50 AM)
Low37 °F (Oct 18, 7:50 AM)40% (Oct 14, 2:20 PM)29.68 "Hg (Oct 21, 10:50 PM)
Average57 °F76%29.95 "Hg
* Reported Oct 8 11:20 AM — Oct 23 11:50 AM, Judenburg, Weather by CustomWeather, © 2014

Note: Actual official high and low records may vary slightly from our data, if they occured in-between our weather recording intervals... More about our weather records

Advertising

Judenburg weather history for previous 24 hours

 ConditionsComfort  
Time TempWeatherWind HumidityBarometerVisibility
11:50 AM
Oct 23
43 °FBroken clouds.3 mph87%29.80 "Hg9 mi
11:20 AM41 °FLight rain. Broken clouds.5 mph93%29.80 "Hg9 mi
10:50 AM41 °FLight rain. Broken clouds.3 mph93%29.80 "Hg9 mi
10:20 AM41 °FLight rain. Broken clouds.1 mph93%29.80 "Hg9 mi
9:50 AM39 °FLight rain. Broken clouds.1 mph100%29.80 "Hg7 mi
9:20 AM39 °FLight rain. Broken clouds.1 mph93%29.80 "Hg6 mi
8:50 AM37 °FLight rain. Broken clouds.2 mph100%29.77 "Hg6 mi
8:20 AM37 °FLight rain. Partly cloudy.5 mph100%29.77 "Hg6 mi
7:50 AM37 °FLight rain. Partly cloudy.5 mph100%29.74 "Hg6 mi
7:20 AM37 °FLight rain. Partly cloudy.5 mph100%29.74 "Hg6 mi
6:50 AM39 °FLight rain. Overcast.3 mph93%29.71 "Hg9 mi
5:50 AM39 °FLight rain. Partly cloudy.2 mph87%29.74 "Hg6 mi
4:50 AM39 °FLight rain. Partly cloudy.1 mph87%29.74 "Hg6 mi
10:50 PM
Oct 22
41 °FPassing clouds.12 mph76%29.74 "Hg12 mi
9:50 PM41 °FPassing clouds.15 mph70%29.77 "Hg12 mi
8:50 PM41 °FPartly cloudy.12 mph66%29.77 "Hg12 mi
7:50 PM41 °FPassing clouds.13 mph66%29.77 "Hg12 mi
6:50 PM41 °FPartly sunny.10 mph66%29.77 "Hg12 mi
6:20 PM41 °FScattered clouds.18 mph70%29.77 "Hg12 mi
5:50 PM41 °FScattered clouds.18 mph70%29.77 "Hg12 mi
5:20 PM43 °FPartly sunny.15 mph66%29.77 "Hg12 mi
4:50 PM45 °FPartly sunny.15 mph66%29.77 "Hg12 mi
4:20 PM43 °FPartly sunny.17 mph71%29.77 "Hg12 mi
3:50 PM43 °FPartly sunny.20 mph66%29.77 "Hg9 mi
3:20 PM43 °FPartly sunny.20 mph71%29.77 "Hg12 mi
2:50 PM43 °FSprinkles. Partly sunny.18 mph76%29.77 "Hg12 mi
2:20 PM43 °FSprinkles. Partly sunny.18 mph71%29.77 "Hg12 mi
1:50 PM45 °FPartly sunny.21 mph66%29.74 "Hg12 mi
1:20 PM46 °FPartly sunny.20 mph57%29.74 "Hg12 mi
Weather by CustomWeather, © 2014

See weather overviewHow to use our weather pages